| time (UTC) | temp F | wind direction | speed MPH | gust MPH | rain 1hr in | rain 24hr in | rain mn in | humidity % | barometer mb |
| 20260901110436 | 59 | 38 | 9.0 | 11.0 | 0.00 | 0.00 | 0.00 | 85 | 1005.0 |
| 20260901104435 | 59 | 54 | 9.0 | 12.0 | 0.00 | 0.00 | 0.00 | 86 | 1005.0 |
| 20260901102436 | 58 | 46 | 9.0 | 11.0 | 0.00 | 0.00 | 0.00 | 87 | 1005.1 |
| 20260901094437 | 57 | 47 | 7.0 | 9.0 | 0.00 | 0.00 | 0.00 | 88 | 1005.2 |
| 20260901092107 | 57 | 46 | 8.0 | 11.0 | 0.00 | 0.00 | 0.00 | 87 | 1005.2 |
| 20260901090435 | 56 | 47 | 9.0 | 12.0 | 0.00 | 0.00 | 0.00 | 87 | 1005.2 |
| 20260901084435 | 57 | 49 | 9.0 | 11.0 | 0.00 | 0.00 | 0.00 | 87 | 1005.1 |
| 20260901082435 | 56 | 58 | 9.0 | 10.0 | 0.00 | 0.00 | 0.00 | 87 | 1005.1 |
| 20260901080436 | 56 | 50 | 7.0 | 10.0 | 0.00 | 0.00 | 0.00 | 89 | 1005.2 |
| 20260901074434 | 55 | 43 | 8.0 | 10.0 | 0.00 | 0.00 | 0.00 | 90 | 1005.2 |
| 20260901072435 | 54 | 32 | 6.0 | 8.0 | 0.00 | 0.00 | 0.00 | 91 | 1005.3 |
| 20260901070434 | 54 | 42 | 7.0 | 10.0 | 0.00 | 0.00 | 0.00 | 93 | 1005.3 |
| 20260901064435 | 54 | 45 | 7.0 | 9.0 | 0.00 | 0.00 | 0.00 | 95 | 1005.4 |
| 20260901062434 | 53 | 30 | 7.0 | 9.0 | 0.00 | 0.00 | 0.00 | 97 | 1005.4 |
| 20260901060434 | 53 | 40 | 7.0 | 9.0 | 0.00 | 0.00 | 0.00 | 98 | 1005.4 |
| 20260901054434 | 53 | 37 | 9.0 | 11.0 | 0.00 | 0.00 | 0.00 | 96 | 1005.4 |
| 20260901044106 | 54 | 41 | 9.0 | 12.0 | 0.00 | 0.00 | 0.00 | 95 | 1005.6 |
| 20260901042434 | 54 | 50 | 8.0 | 11.0 | 0.00 | 0.00 | 0.00 | 94 | 1005.6 |
| 20260901040436 | 53 | 43 | 9.0 | 12.0 | 0.00 | 0.00 | 0.00 | 96 | 1005.7 |
| 20260901034435 | 54 | 52 | 9.0 | 13.0 | 0.00 | 0.00 | 0.00 | 95 | 1005.7 |
| 20260901032435 | 54 | 56 | 9.0 | 11.0 | 0.00 | 0.00 | 0.00 | 93 | 1005.7 |
| 20260901030434 | 54 | 40 | 9.0 | 11.0 | 0.00 | 0.00 | 0.00 | 94 | 1005.7 |
| 20260901024433 | 54 | 55 | 5.0 | 7.0 | 0.00 | 0.00 | 0.00 | 94 | 1005.9 |
| 20260901022433 | 54 | 45 | 6.0 | 8.0 | 0.00 | 0.00 | 0.00 | 94 | 1005.9 |
| 20260901020434 | 54 | 30 | 6.0 | 7.0 | 0.00 | 0.00 | 0.00 | 95 | 1005.9 |
| 20260901014435 | 54 | 45 | 4.0 | 5.0 | 0.00 | 0.00 | 0.00 | 94 | 1005.9 |
| 20260901012434 | 54 | 43 | 4.0 | 6.0 | 0.00 | 0.00 | 0.00 | 94 | 1005.9 |
| 20260901010436 | 54 | 52 | 6.0 | 7.0 | 0.00 | 0.00 | 0.00 | 95 | 1005.9 |
| 20260901004435 | 54 | 61 | 4.0 | 6.0 | 0.00 | 0.00 | 0.00 | 94 | 1005.9 |
| 20260901002437 | 54 | 47 | 5.0 | 7.0 | 0.00 | 0.00 | 0.00 | 96 | 1006.0 |
| 20260901000435 | 54 | 43 | 5.0 | 7.0 | 0.00 | 0.00 | 0.00 | 96 | 1006.1 |
| 20260831234447 | 55 | 71 | 5.0 | 6.0 | 0.00 | 0.00 | 0.00 | 94 | 1006.2 |
| 20260831232436 | 55 | 57 | 5.0 | 6.0 | 0.00 | 0.00 | 0.00 | 93 | 1006.3 |
| 20260831230434 | 55 | 29 | 4.0 | 5.0 | 0.00 | 0.00 | 0.00 | 93 | 1006.3 |
| 20260831224434 | 55 | 27 | 4.0 | 7.0 | 0.00 | 0.00 | 0.00 | 93 | 1006.2 |
| 20260831222434 | 55 | 54 | 5.0 | 7.0 | 0.00 | 0.00 | 0.00 | 93 | 1006.2 |
| 20260831220434 | 55 | 64 | 3.0 | 7.0 | 0.00 | 0.00 | 0.00 | 92 | 1006.1 |
| 20260831214433 | 55 | 26 | 2.0 | 4.0 | 0.00 | 0.00 | 0.00 | 93 | 1006.0 |
| 20260831212434 | 55 | 26 | 4.0 | 6.0 | 0.00 | 0.00 | 0.00 | 95 | 1006.0 |
| 20260831210435 | 56 | 42 | 4.0 | 5.0 | 0.00 | 0.00 | 0.00 | 90 | 1006.0 |